Location: Appleton
(44.2618°N, 88.4157°W)
Time: 03:46:15
(UTC+00:00)

DMC 3-FM2 - Visible Passes

Search period start: 15 June 2021 00:00
Search period end: 25 June 2021 00:00
Orbit: 640 x 659 km, 97.9° (Epoch: 14 June)

Date Brightness Start Highest point End Pass type
(mag) Time Alt. Az. Time Alt. Az. Time Alt. Az.
15 Jun ? 03:26:37 10° NE 03:29:37 17° E 03:30:27 17° ESE visible
15 Jun ? 05:02:18 10° N 05:06:34 47° WNW 05:08:14 31° SW visible
16 Jun ? 03:52:09 10° NNE 03:56:08 32° E 03:57:04 29° ESE visible
16 Jun ? 05:29:01 10° N 05:32:44 27° WNW 05:34:50 18° WSW visible
17 Jun ? 04:18:08 10° NNE 04:22:33 60° E 04:23:42 44° SSE visible
17 Jun ? 05:56:09 10° NNW 05:58:46 16° WNW 06:01:22 10° W visible
18 Jun ? 03:10:11 10° ENE 03:11:39 11° E 03:12:32 11° E visible
18 Jun ? 04:44:26 10° N 04:48:52 73° WNW 04:50:19 42° SSW visible
19 Jun ? 03:34:50 10° NE 03:38:14 21° E 03:39:09 20° ESE visible
19 Jun ? 05:10:57 10° N 05:15:05 39° WNW 05:16:56 26° WSW visible
20 Jun ? 04:00:33 10° NNE 04:04:43 39° E 04:05:46 33° SE visible
20 Jun ? 05:37:46 10° NNW 05:41:11 22° WNW 05:43:32 15° WSW visible
21 Jun ? 04:26:39 10° NNE 04:31:06 74° ESE 04:32:22 46° S visible
21 Jun ? 06:05:13 10° NNW 06:07:12 13° WNW 06:09:12 10° W visible
22 Jun ? 03:17:55 10° ENE 03:20:18 14° E 03:21:13 14° ESE visible
22 Jun ? 04:53:00 10° N 04:57:23 59° WNW 04:58:59 36° SW visible
23 Jun ? 03:43:07 10° NE 03:46:51 26° E 03:47:49 24° ESE visible
23 Jun ? 05:19:37 10° N 05:23:34 32° WNW 05:25:35 22° WSW visible
24 Jun ? 04:08:59 10° NNE 04:13:18 48° E 04:14:25 39° SE visible
24 Jun ? 05:46:35 10° NNW 05:49:39 19° WNW 05:52:12 12° WSW visible
